| time (UTC) | temp F | wind direction | speed MPH | gust MPH | rain 1hr in | rain 24hr in | rain mn in | humidity % | barometer mb |
| 20260505170030 | 61 | 346 | 6.0 | 12.0 | 0.00 | 0.00 | 0.00 | 60 | 1012.9 |
| 20260505164526 | 61 | 327 | 8.0 | 13.0 | 0.00 | 0.00 | 0.00 | 58 | 1012.8 |
| 20260505163022 | 60 | 343 | 5.0 | 13.0 | 0.00 | 0.00 | 0.00 | 59 | 1012.7 |
| 20260505161527 | 61 | 11 | 7.0 | 12.0 | 0.00 | 0.00 | 0.00 | 57 | 1012.8 |
| 20260505153028 | 63 | 15 | 2.0 | 10.0 | 0.00 | 0.00 | 0.00 | 53 | 1012.9 |
| 20260505151524 | 62 | 338 | 4.0 | 13.0 | 0.00 | 0.00 | 0.00 | 54 | 1012.9 |
| 20260505124531 | 61 | 42 | 4.0 | 11.0 | 0.00 | 0.00 | 0.00 | 60 | 1013.3 |
| 20260505123009 | 60 | 71 | 2.0 | 10.0 | 0.00 | 0.00 | 0.00 | 62 | 1013.4 |
| 20260505121529 | 60 | 56 | 1.0 | 9.0 | 0.00 | 0.00 | 0.00 | 63 | 1013.5 |
| 20260505120020 | 59 | 335 | 3.0 | 9.0 | 0.00 | 0.00 | 0.00 | 65 | 1013.5 |
| 20260505114522 | 59 | 46 | 3.0 | 9.0 | 0.00 | 0.00 | 0.00 | 65 | 1013.7 |
| 20260505113023 | 59 | 344 | 2.0 | 9.0 | 0.00 | 0.00 | 0.00 | 66 | 1013.7 |
| 20260505111510 | 58 | 342 | 1.0 | 8.0 | 0.00 | 0.00 | 0.00 | 67 | 1013.9 |
| 20260505101523 | 57 | 19 | 3.0 | 10.0 | 0.00 | 0.00 | 0.00 | 70 | 1014.0 |
| 20260505100021 | 56 | 52 | 2.0 | 9.0 | 0.00 | 0.00 | 0.00 | 71 | 1014.1 |
| 20260505094519 | 54 | 75 | 3.0 | 13.0 | 0.00 | 0.00 | 0.00 | 71 | 1014.2 |
| 20260505093028 | 54 | 345 | 5.0 | 10.0 | 0.00 | 0.00 | 0.00 | 72 | 1014.4 |
| 20260505091527 | 54 | 56 | 5.0 | 12.0 | 0.00 | 0.00 | 0.00 | 73 | 1014.3 |
| 20260505090025 | 53 | 46 | 4.0 | 12.0 | 0.00 | 0.00 | 0.00 | 74 | 1014.3 |
| 20260505084518 | 53 | 66 | 4.0 | 12.0 | 0.00 | 0.00 | 0.00 | 76 | 1014.5 |
| 20260505083032 | 52 | 32 | 2.0 | 14.0 | 0.00 | 0.00 | 0.00 | 78 | 1014.5 |
| 20260505081524 | 52 | 38 | 3.0 | 9.0 | 0.00 | 0.00 | 0.00 | 78 | 1014.7 |
| 20260505080009 | 52 | 32 | 2.0 | 12.0 | 0.00 | 0.01 | 0.00 | 79 | 1014.9 |
| 20260505074512 | 52 | 21 | 4.0 | 12.0 | 0.00 | 0.01 | 0.00 | 82 | 1014.8 |
| 20260505073019 | 51 | 40 | 1.0 | 11.0 | 0.00 | 0.02 | 0.00 | 86 | 1014.7 |
| 20260505071502 | 50 | 13 | 2.0 | 15.0 | 0.00 | 0.03 | 0.00 | 88 | 1014.7 |
| 20260505070008 | 50 | 26 | 3.0 | 8.0 | 0.00 | 0.03 | 0.00 | 90 | 1014.5 |
| 20260505064510 | 49 | 22 | 1.0 | 12.0 | 0.00 | 0.03 | 0.00 | 91 | 1014.7 |
| 20260505063021 | 48 | 28 | 2.0 | 6.0 | 0.00 | 0.03 | 0.00 | 92 | 1014.5 |
| 20260505061524 | 48 | 69 | 2.0 | 5.0 | 0.00 | 0.03 | 0.00 | 92 | 1014.6 |
| 20260505060006 | 47 | 71 | 1.0 | 8.0 | 0.00 | 0.03 | 0.00 | 92 | 1014.6 |
| 20260505054510 | 47 | 38 | 1.0 | 6.0 | 0.00 | 0.03 | 0.00 | 92 | 1014.6 |
| 20260505053012 | 47 | 86 | 0.0 | 2.0 | 0.00 | 0.03 | 0.00 | 91 | 1014.6 |
| 20260505051533 | 47 | 86 | 0.0 | 0.0 | 0.00 | 0.03 | 0.00 | 91 | 1014.6 |
| 20260505041526 | 46 | 86 | 0.0 | 0.0 | 0.00 | 0.03 | 0.00 | 90 | 1014.5 |
| 20260505040022 | 46 | 86 | 0.0 | 0.0 | 0.00 | 0.03 | 0.00 | 90 | 1014.3 |
| 20260505034524 | 46 | 86 | 0.0 | 0.0 | 0.00 | 0.03 | 0.00 | 90 | 1014.3 |
| 20260505033007 | 46 | 86 | 0.0 | 0.0 | 0.00 | 0.03 | 0.00 | 89 | 1014.3 |
| 20260505031524 | 46 | 86 | 0.0 | 0.0 | 0.00 | 0.03 | 0.00 | 89 | 1014.4 |
| 20260505030018 | 47 | 86 | 0.0 | 0.0 | 0.00 | 0.03 | 0.00 | 89 | 1014.5 |
| 20260505024525 | 47 | 86 | 0.0 | 0.0 | 0.00 | 0.03 | 0.00 | 89 | 1014.5 |
| 20260505023026 | 48 | 86 | 0.0 | 0.0 | 0.00 | 0.03 | 0.00 | 89 | 1014.7 |
| 20260505021508 | 48 | 86 | 0.0 | 0.0 | 0.00 | 0.03 | 0.00 | 89 | 1014.7 |
| 20260505020016 | 48 | 86 | 0.0 | 1.0 | 0.00 | 0.03 | 0.00 | 88 | 1014.9 |
| 20260505014522 | 48 | 86 | 0.0 | 0.0 | 0.00 | 0.03 | 0.00 | 88 | 1014.9 |
| 20260505013025 | 49 | 86 | 0.0 | 0.0 | 0.00 | 0.03 | 0.00 | 88 | 1014.7 |
| 20260505011528 | 50 | 86 | 0.0 | 0.0 | 0.00 | 0.03 | 0.00 | 88 | 1014.8 |
| 20260505010015 | 51 | 86 | 0.0 | 0.0 | 0.00 | 0.03 | 0.00 | 88 | 1015.0 |
| 20260505004518 | 51 | 86 | 0.0 | 0.0 | 0.00 | 0.03 | 0.00 | 88 | 1014.9 |
| 20260505003027 | 52 | 86 | 0.0 | 0.0 | 0.00 | 0.03 | 0.00 | 89 | 1015.1 |
| 20260505001524 | 52 | 86 | 0.0 | 0.0 | 0.00 | 0.03 | 0.00 | 89 | 1015.0 |
| 20260505000031 | 53 | 86 | 0.0 | 1.0 | 0.00 | 0.03 | 0.00 | 88 | 1015.0 |
| 20260504234514 | 53 | 86 | 0.0 | 2.0 | 0.00 | 0.03 | 0.00 | 88 | 1015.1 |
| 20260504233017 | 53 | 86 | 0.0 | 0.0 | 0.00 | 0.03 | 0.00 | 88 | 1015.0 |
| 20260504231522 | 53 | 86 | 0.0 | 0.0 | 0.00 | 0.03 | 0.00 | 88 | 1015.2 |
| 20260504230010 | 53 | 86 | 0.0 | 0.0 | 0.00 | 0.03 | 0.00 | 87 | 1015.2 |
| 20260504224519 | 53 | 86 | 0.0 | 0.0 | 0.00 | 0.03 | 0.03 | 87 | 1015.3 |
| 20260504223020 | 53 | 86 | 0.0 | 0.0 | 0.00 | 0.03 | 0.03 | 87 | 1015.3 |
| 20260504221524 | 54 | 86 | 0.0 | 0.0 | 0.00 | 0.03 | 0.03 | 87 | 1015.3 |
| 20260504220024 | 54 | 86 | 0.0 | 0.0 | 0.00 | 0.03 | 0.03 | 86 | 1015.4 |
| 20260504214509 | 54 | 86 | 0.0 | 0.0 | 0.00 | 0.03 | 0.03 | 86 | 1015.3 |
| 20260504213012 | 54 | 86 | 0.0 | 1.0 | 0.00 | 0.03 | 0.03 | 86 | 1015.3 |
| 20260504211518 | 55 | 86 | 0.0 | 0.0 | 0.00 | 0.03 | 0.03 | 86 | 1015.3 |
| 20260504210021 | 55 | 86 | 0.0 | 0.0 | 0.00 | 0.03 | 0.03 | 85 | 1015.4 |
| 20260504204525 | 55 | 86 | 0.0 | 0.0 | 0.00 | 0.03 | 0.03 | 85 | 1015.4 |
| 20260504203010 | 55 | 86 | 0.0 | 0.0 | 0.00 | 0.03 | 0.03 | 85 | 1015.4 |
| 20260504201513 | 56 | 86 | 0.0 | 0.0 | 0.00 | 0.03 | 0.03 | 84 | 1015.3 |
| 20260504200021 | 56 | 86 | 0.0 | 0.0 | 0.00 | 0.03 | 0.03 | 84 | 1015.0 |
| 20260504194525 | 56 | 86 | 0.0 | 2.0 | 0.00 | 0.03 | 0.03 | 83 | 1014.9 |
| 20260504193027 | 57 | 86 | 0.0 | 0.0 | 0.00 | 0.03 | 0.03 | 83 | 1014.7 |
| 20260504191512 | 57 | 86 | 0.0 | 3.0 | 0.00 | 0.03 | 0.03 | 83 | 1014.6 |
| 20260504190018 | 57 | 86 | 0.0 | 3.0 | 0.00 | 0.03 | 0.03 | 82 | 1014.4 |
| 20260504184531 | 58 | 85 | 1.0 | 4.0 | 0.00 | 0.03 | 0.03 | 82 | 1014.4 |
| 20260504183033 | 58 | 86 | 0.0 | 4.0 | 0.00 | 0.03 | 0.03 | 81 | 1014.5 |
| 20260504181527 | 59 | 86 | 0.0 | 4.0 | 0.00 | 0.03 | 0.03 | 81 | 1014.2 |
| 20260504180014 | 59 | 73 | 0.0 | 5.0 | 0.00 | 0.03 | 0.03 | 80 | 1014.3 |
| 20260504174518 | 59 | 74 | 0.0 | 4.0 | 0.00 | 0.03 | 0.03 | 80 | 1014.1 |
| 20260504173021 | 60 | 76 | 1.0 | 5.0 | 0.00 | 0.03 | 0.03 | 79 | 1013.9 |
| 20260504171524 | 60 | 65 | 1.0 | 8.0 | 0.00 | 0.03 | 0.03 | 79 | 1013.8 |